Location: Zagreb
(45.8000°N, 16.0000°E)
Time: 01:45:12
(UTC+01:00)

SR - Pass Details

Date: 20 August 2020
Orbit: 576 x 879 km, 66.7° (Epoch: 15 January)

Event Time Altitude Azimuth Distance (km) Brightness Sun altitude
Rises 04:40:11 0° 327° (NNW) 2,822 ? -13.6°
Reaches altitude 10° 04:42:22 10° 329° (NNW) 1,938 ? -13.3°
Maximum altitude 04:46:43 79° 56° (NE) 637 ? -12.7°
Drops below altitude 10° 04:51:21 10° 144° (SE) 2,063 ? -12.0°
Sets 04:53:44 0° 146° (SE) 3,020 ? -11.7°
